This is the latest recevied weather packets stored in our database for station/object DC9PA-13. If no packets are shown the sender has not sent any weather packets the latest 10 day(s).
| Time | Temp. | Humidity | Pressure | Rain* | Wind** | Luminosity | Snow |
|---|---|---|---|---|---|---|---|
| 1777982763 | 24.44° C | 35% | 991.8 hPa | 0 mm | - | - | - |
| 1777982672 | 24.44° C | 36% | 991.8 hPa | 0 mm | - | - | - |
| 1777982643 | 25° C | 35% | 991.8 hPa | 0 mm | - | - | - |
| 1777982612 | 25° C | 35% | 991.8 hPa | 0 mm | - | - | - |
| 1777982522 | 25° C | 35% | 991.8 hPa | 0 mm | - | - | - |
| 1777982432 | 25° C | 34% | 991.7 hPa | 0 mm | - | - | - |
| 1777982072 | 24.44° C | 35% | 991.7 hPa | 0 mm | - | - | - |
| 1777981832 | 23.89° C | 37% | 991.9 hPa | 0 mm | - | - | - |
| 1777981823 | 23.89° C | 37% | 991.9 hPa | 0 mm | - | - | - |
| 1777981793 | 23.89° C | 38% | 991.9 hPa | 0 mm | - | - | - |
| 1777981712 | 24.44° C | 36% | 991.9 hPa | 0 mm | - | - | - |
| 1777981022 | 24.44° C | 37% | 991.7 hPa | 0 mm | - | - | - |
| 1777980992 | 24.44° C | 37% | 991.7 hPa | 0 mm | - | - | - |
| 1777980962 | 24.44° C | 36% | 992 hPa | 0 mm | - | - | - |
| 1777980933 | 24.44° C | 37% | 992 hPa | 0 mm | - | - | - |
| 1777980902 | 24.44° C | 36% | 992 hPa | 0 mm | - | - | - |
| 1777980842 | 24.44° C | 36% | 992 hPa | 0 mm | - | - | - |
| 1777980602 | 25° C | 36% | 991.9 hPa | 0 mm | - | - | - |
| 1777980362 | 24.44° C | 40% | 992.3 hPa | 0 mm | - | - | - |
| 1777980332 | 24.44° C | 39% | 992.3 hPa | 0 mm | - | - | - |
| 1777980302 | 24.44° C | 39% | 992.3 hPa | 0 mm | - | - | - |
| 1777980273 | 24.44° C | 38% | 992.3 hPa | 0 mm | - | - | - |
| 1777980243 | 24.44° C | 37% | 992.3 hPa | 0 mm | - | - | - |
| 1777980212 | 24.44° C | 36% | 992.3 hPa | 0 mm | - | - | - |
| 1777980182 | 24.44° C | 38% | 992.3 hPa | 0 mm | - | - | - |
* Rain since midnight (hover to see other rain measurements)
** Current wind speed in m/s (hover to see current wind gust speed)